Regional Weather Roundup
Issued by NWS Bismarck, ND

Current Version | Previous Version | Text Only | Print | Product List | Glossary On
Versions: 1 2 3 4 5 6 7 8 9 10 11 12 13 14 15 16 17 18 19 20 21 22 23 24 25 26 27 28 29 30 31 32 33 34 35 36 37 38 39 40 41 42 43 44 45 46 47 48 49 50
000
ASUS43 KBIS 281410
RWRBIS

NWR BROADCAST TEXT
NATIONAL WEATHER SERVICE BISMARCK ND
900 AM CDT SUN AUG 28 2016

NOTE: "FAIR" INDICATES FEW OR NO CLOUDS BELOW 12,000 FEET WITH NO
SIGNIFICANT WEATHER AND/OR OBSTRUCTIONS TO VISIBILITY.


CITY           SKY/WX    TMP DP  RH WIND       PRES   REMARKS
WILLISTON      SUNNY     67  53  61 SW3       29.85R
MINOT          SUNNY     69  56  62 CALM      29.87R
MINOT AFB      SUNNY     64  54  69 S5        29.86S
BISMARCK       SUNNY     65  61  87 CALM      29.91S
DICKINSON      SUNNY     60  54  80 S5        29.89S
GARRISON         N/A     66  59  78 SE6       29.90R
HETTINGER ARPT SUNNY     60  55  83 CALM      29.93R
JAMESTOWN      CLOUDY    65  62  90 SE12      29.95F
CARRINGTON     FAIR      63  63 100 SE12      29.96F
HAZEN          FAIR      63  54  72 CALM      29.92S
LINTON         FAIR      68  66  94 SE17      29.93S
MANDAN         FAIR      64  61  88 SE8       29.92R
OAKES            N/A    N/A N/A N/A MISG        N/A
RUGBY          FAIR      66  63  88 S9        29.90S
STANLEY        FAIR      64  59  82 SE8       29.90S
WATFORD CITY   FAIR      68  55  64 S3        29.87S
$$

CITY           SKY/WX    TMP DP  RH WIND       PRES   REMARKS
GRAND FORKS    SUNNY     64  60  87 S12       29.99S
GRAND FORKS AF SUNNY     64  61  91 S8        29.99S
DEVILS LAKE    SUNNY     66  63  90 SE15      29.95S
FARGO          SUNNY     68  61  78 S14       30.01S
CAVALIER       CLOUDY    59  59 100 S8        29.98S FOG
GRAFTON        CLOUDY    63  63 100 S10       30.00F
GWINNER        FAIR      70  64  83 SE7       29.99F
LANGDON        FAIR      66  64  94 SE12      29.97S
ROLLA          FAIR      59  59 100 S9        29.94S
$$

CITY           SKY/WX    TMP DP  RH WIND       PRES   REMARKS
ABERDEEN       SUNNY     71  65  81 SE14G23   29.97F
MOBRIDGE       SUNNY     72  63  73 SE14      29.89S
BUFFALO          N/A     59  55  87 CALM      29.89R
RAPID CITY     SUNNY     65  56  72 CALM      29.96R
GLASGOW        PTSUNNY   67  48  50 VRB6      29.85R
SIDNEY         SUNNY     62  53  72 S7        29.85R
WOLF POINT     CLOUDY    62  48  60 W10       29.86R
GLENDIVE       SUNNY     63  51  65 S14       29.88R
MILES CITY     MOSUNNY   61  45  55 SE5       29.90R
BAKER          CLOUDY    56  51  84 CALM      29.93R
$$

CITY           SKY/WX    TMP DP  RH WIND       PRES   REMARKS
BILLINGS       MOSUNNY   62  37  39 SW15      29.98R
GREAT FALLS    MOSUNNY   67  41  38 W13       29.96R
REGINA         CLOUDY    61  52  72 W3        29.81R
ESTEVAN        PTSUNNY   64  55  72 S6        29.82R
$$





USA.gov is the U.S. government's official web portal to all federal, state and local government web resources and services.